RADUGA 10 [-]

Last updated on Jan. 17, 2020, 4:32 a.m. UTC

1 12897U 81102A   20016.38115068 -.00000034  00000-0  00000-0 0  9998
2 12897  11.8774 318.4751 0001776 119.2162 242.2402  1.00288822 93840
UTC
Height (km)
Latitude
Longitude
Inclination
Orbital Period
UTC large
Height (km)
Speed (km/s)
/
Latitude / Longitude
Inclination (degrees)
Orbital Period (minutes)
Azimuth
Elevation
Range (km)
Doppler Factor
iOS Compass Heading
iOS Angle

Next 30 passes for location: Hong Kong

Rise time Rise Azimuth (degrees) Set time Set Azimuth (degrees) Duration Max altitude (degrees)

No matching passes for this satellites